User: anonymous   Login
Location: Observatoire
(46.1952°N, 5.3391°E)
Time: 00:59:28
(UTC+02:00)
Language:

ITAMSAT 1 - Orbit

View from above orbital plane
View from above orbital plane
View from above satellite
View from above satellite

Ground track
Ground track

The orbit data is extracted from the following two-line orbital elements,

1 22826U 93061D   24109.58831251  .00000467  00000-0  19546-3 0  9993
2 22826  98.7894 161.5884 0008051 233.8380 126.2057 14.30837703594378
Epoch (UTC): 18 April 2024 14:07:10
Eccentricity: 0.0008051
inclination: 98.7894°
perigee height: 783 km
apogee height: 795 km
right ascension of ascending node: 161.5884°
argument of perigee: 233.8380°
revolutions per day: 14.30837703
mean anomaly at epoch: 126.2057°
orbit number at epoch: 59437

The dashed part of the orbit path shows where the satellite is in the earth's shadow,  

DLR